Miscellaneous Local Product
Issued by NWS Hastings, NE

Home | Current Version | Previous Version | Graphics & Text | Print | Product List | Glossary On
Versions: 1 2 3 4 5 6 7 8 9 10 11 12 13 14 15 16 17 18 19 20 21 22 23 24 25 26 27 28 29 30 31 32 33 34 35 36 37 38 39 40 41 42 43 44 45 46 47 48 49 50
000
AXUS43 KGID 260202
MISGRI

GID CWA HOURLY WEATHER ROUNDUP
NATIONAL WEATHER SERVICE HASTINGS NE
900 PM CDT SAT MAR 25 2017

NOTE: "FAIR" INDICATES FEW OR NO CLOUDS BELOW 12,000 FEET WITH NO
SIGNIFICANT WEATHER AND/OR OBSTRUCTIONS TO VISIBILITY.

...SOUTH CENTRAL NEBRASKA...

CITY           SKY/WX    TMP DP  RH WIND       PRES   REMARKS
GRAND ISLAND   CLOUDY    38  38 100 NE7       29.95R FOG     WCI  33
HASTINGS       CLOUDY    40  38  93 NE8       29.95R FOG     WCI  34
KEARNEY        CLOUDY    41  37  87 NE6       29.95R
ORD            CLOUDY    40  37  89 NE6       29.94R FOG
YORK           CLOUDY    39  39 100 NE10      29.95S FOG     WCI  32
AURORA         FOG       38  38 100 NE10      29.94R VSB 1/2 WCI  31
LEXINGTON      CLOUDY    44  40  84 CALM      29.92S
HOLDREGE       CLOUDY    42  40  93 E3        29.93S FOG
HEBRON         CLOUDY    40  38  95 NE9       29.94F FOG     WCI  33

...NEBRASKA PANHANDLE...

CITY           SKY/WX    TMP DP  RH WIND       PRES   REMARKS
CHADRON        CLOUDY    54  36  50 SE10      29.78S
ALLIANCE       CLOUDY    52  31  44 S13       29.82S
SCOTTSBLUFF    CLOUDY    53  33  46 E6        29.81S
SIDNEY         CLOUDY    47  32  56 SE9       29.86S

...WESTERN AND NORTH CENTRAL NEBRASKA...

CITY           SKY/WX    TMP DP  RH WIND       PRES   REMARKS
VALENTINE      CLOUDY    48  35  60 SE13      29.88R
AINSWORTH      CLEAR     41  39  94 SE9       29.91R
ONEILL         CLOUDY    39  39  98 E6        29.96R FOG     WCI  35
BROKEN BOW     CLOUDY    45  41  86 SE6       29.92R
IMPERIAL       CLOUDY    47  31  53 SE3       29.87F
NORTH PLATTE   CLOUDY    47  42  83 SE14      29.89S
MCCOOK         CLOUDY    45  41  86 E10       29.90S

...EASTERN NEBRASKA...

CITY           SKY/WX    TMP DP  RH WIND       PRES   REMARKS
NORFOLK        CLOUDY    38  37  97 E9        29.95S FOG     WCI  31
SO SIOUX CITY  CLOUDY    40  39  97 NE7       29.99R FOG
TEKAMAH        CLOUDY    41  38  89 N9        29.96S
COLUMBUS       CLOUDY    39  36  87 NE7       29.96S WCI  34
ALBION         CLOUDY    40  38  92 NE6       29.95S FOG
OMAHA EPPLEY   CLOUDY    42  37  82 N8        29.94R
OFFUTT AFB     CLOUDY    41  39  92 N7        29.94R
MILLARD        CLOUDY    43  41  91 N3        29.95R
LINCOLN        LGT RAIN  41  39  93 N10       29.96R
NEBRASKA CITY  CLOUDY    41  41 100 N9        29.93R
BEATRICE       CLOUDY    41  40  97 N9        29.94R
FALLS CITY     CLOUDY    43  41  93 N7        29.92R

...NORTHERN KANSAS...

CITY           SKY/WX    TMP DP  RH WIND       PRES   REMARKS
GOODLAND       CLOUDY    45  36  70 SE7       29.88R
HILL CITY      CLOUDY    41  38  89 E3        29.92S
NORTON         CLEAR     39  34  81 NE5       29.91S
PHILLIPSBURG   MOCLDY    45  39  81 NE5       29.94R
HAYS             N/A     47  39  74 NE8       29.92S
RUSSELL        CLOUDY    42  37  82 E6        29.91F
CONCORDIA      CLOUDY    41  41 100 NE7       29.93S FOG
SALINA         CLOUDY    45  40  82 N9        29.94S
TOPEKA         CLOUDY    46  43  89 N8        29.91R



USA.gov is the U.S. government's official web portal to all federal, state and local government web resources and services.